Regional Weather Roundup
Issued by NWS Albany, NY

Home | Current Version | Previous Version | Graphics & Text | Print | Product List | Glossary Off
Versions: 1 2 3 4 5 6 7 8 9 10 11 12 13 14 15 16 17 18 19 20 21 22 23 24 25 26 27

000
ASUS41 KALY 180210
RWRALY

NEW YORK STATE HOURLY WEATHER ROUNDUP
NATIONAL WEATHER SERVICE ALBANY NY
1000 PM EDT THU APR 17 2014

NOTE: "FAIR" INDICATES FEW OR NO CLOUDS BELOW 12,000 FEET WITH NO
SIGNIFICANT WEATHER AND/OR NO OBSTRUCTIONS TO VISIBILITY.

NYZ032-033-038>043-046>054-057>066-NYZ062>081-180300-
EAST


CITY           SKY/WX    TMP DP  RH WIND       PRES   REMARKS
ALBANY         PTCLDY    44  20  38 SE9G16    30.60S
GLENS FALLS    CLEAR     39  22  50 SE10      30.59S WCI  32
POUGHKEEPSIE   CLEAR     42  26  53 SE7       30.62S
NEWBURGH       CLEAR     41  27  56 VRB6      30.62S
MONTGOMERY     CLEAR     40  24  53 SE5       30.60F
WHITE PLAINS   CLEAR     38  28  67 E3        30.62F
ISLIP          PTCLDY    38  27  64 E5        30.63F WCI  34
NEW YORK CITY  PTCLDY    40  28  62 E8        30.64F WCI  34
CENTRAL PARK   CLEAR     41  30  65 VRB6      30.66F
$$

NYZ005>009-017-018-044>046-055-056-180300-
CENTRAL


CITY           SKY/WX    TMP DP  RH WIND       PRES   REMARKS
FULTON         CLEAR     45  23  42 SE5       30.47R
SYRACUSE       PTCLDY    44  22  41 E10       30.48S
ROME           CLEAR     42  21  43 E12       30.53S
ELMIRA         CLEAR     45  25  45 SW7       30.48R
BINGHAMTON     CLEAR     42  19  39 S10       30.49R
MONTICELLO     CLEAR     34  21  60 SE8       30.58S WCI  27
$$

NYZ026>034-041>043-180300-
NORTH


CITY           SKY/WX    TMP DP  RH WIND       PRES   REMARKS
WATERTOWN      CLEAR     44  20  38 E6        30.47F
FORT DRUM      NOT AVBL
MASSENA        PTCLDY    39  19  44 S3        30.52R
SARANAC LAKE   CLEAR     29  18  63 CALM      30.49S
PLATTSBURGH    CLEAR     32  23  69 CALM      30.57S
$$

NYZ001>004-010>016-019>021-180300-
WEST


CITY           SKY/WX    TMP DP  RH WIND       PRES   REMARKS
NIAGARA FALLS  PTCLDY    47  34  60 SE5       30.35R
BUFFALO        CLEAR     52  26  36 S12       30.36S
DUNKIRK        PTCLDY    53  26  35 S17       30.35S
JAMESTOWN      CLEAR     46  25  42 SE6       30.38R
WELLSVILLE     CLEAR     44  20  38 S12       30.43S
ROCHESTER      PTCLDY    50  24  36 S9        30.42R
PENN YAN       CLEAR     45  26  47 S10       30.45R
$$

             KEY
       WCI = WIND CHILL INDEX
       VSB = VISIBILITY
       HX  = HEAT INDEX
$$



USA.gov is the U.S. government's official web portal to all federal, state and local government web resources and services.